[[{"header":{"parameterUnit":"m.s-1","parameterCategory":1,"la1":30.2992,"la2":30.254,"lo1":-89.0895,"lo2":-89.0443,"dy":0.0025,"dx":0.0025,"nx":19,"ny":19,"refTime":"2026-03-16T09:00:00:Z","depth":0,"parameterNumber":2,"parameterNumberName":"U-component_of_WINDS"},"data":[0,0,0,2.8951,2.8951,2.8968,2.8968,2.9,2.9,0,0,0,0,0,0,0,0,0,0,0,2.8952,2.8952,2.8951,2.8952,2.8968,2.8968,2.9,2.9,0,0,0,0,0,0,0,0,0,0,0,2.8951,2.8952,2.8952,2.8952,2.8968,2.8968,2.9,2.8984,0,0,0,0,0,0,0,0,0,0,2.8966,2.8971,2.8952,2.8952,2.8952,2.8968,2.8968,2.8983,2.8985,2.8997,0,2.9009,0,2.9005,2.9003,2.9003,0,0,0,2.8947,2.897,2.897,2.8952,2.8952,2.8968,2.8959,2.8984,2.8986,2.9,2.9009,2.901,2.9006,2.9003,2.9004,2.9088,2.9088,0,0,2.8946,2.8957,2.8968,2.8971,2.8969,2.8959,2.896,2.8985,2.8996,2.9009,2.901,2.9006,2.9004,2.9004,2.9087,2.9088,0,0,0,2.8947,2.8957,2.8956,2.897,2.8972,2.896,2.8961,2.8995,2.8993,2.9011,2.9007,2.9004,2.9005,2.9087,2.9088,2.9127,0,0,0,2.8946,2.8957,2.8956,2.8963,2.8972,2.8984,2.897,2.8992,2.8994,2.9006,2.9004,2.9005,2.9086,2.9087,2.9125,2.9144,0,0,0,2.8949,2.8957,2.8962,2.8963,2.8971,2.8983,2.8983,2.8992,2.8992,2.9003,2.9005,2.9085,2.9087,2.9123,2.914,2.917,0,0,0,2.8955,2.8996,2.8963,2.9008,2.8971,2.9008,2.8983,2.901,2.9024,2.9004,2.9086,2.9087,2.9122,2.9138,2.9167,2.9196,2.9209,0,0,2.9013,2.9003,2.9029,2.9,2.9046,2.9004,2.9056,2.9059,2.905,2.9076,2.9078,2.9126,2.914,2.9169,2.928,2.9291,0,0,0,2.9052,2.907,2.908,2.9095,2.9099,2.9104,2.9097,2.9099,2.9121,2.9065,2.9144,2.9152,2.9169,2.9182,2.9191,2.9205,2.9094,2.9094,2.9094,2.9149,2.9136,2.9178,2.9169,2.9184,2.9178,2.9189,2.9191,2.9172,2.9192,2.9199,2.9268,2.9283,2.929,2.9305,2.9214,2.9214,2.9214,2.9214,2.9233,2.9257,2.9235,2.9267,2.9255,2.9282,2.928,2.9267,2.9291,2.926,2.9275,2.9241,2.9302,2.9314,2.9217,2.9216,2.9216,2.9216,2.9215,2.9294,2.9304,2.9306,2.9328,2.9347,2.9336,2.9361,2.9348,2.9337,2.9351,2.9357,2.9357,2.9354,2.9355,2.9355,2.9356,2.9356,2.9356,2.9356,2.9356,2.9358,2.938,2.939,2.9399,2.941,2.9408,2.9416,2.9423,2.9412,2.9412,2.9393,2.931,2.929,2.936,2.9359,2.9359,2.9358,2.9358,2.9444,2.9423,2.9458,2.9468,2.948,2.95,2.9485,2.9505,2.951,2.9524,2.9503,2.9444,2.9433,2.9426,2.9408,2.9505,2.9505,2.9505,2.9505,2.9496,2.949,2.9524,2.954,2.9555,2.9546,2.9587,2.9587,2.9583,2.9587,2.9571,2.9548,2.9541,2.9534,2.9524,2.9508,2.9628,2.9628,2.9628,2.9549,2.9545,2.9581,2.9578,2.9588,2.9596,2.9635,2.9656,2.9648,2.9633,2.9589,2.9584,2.9546,2.9534,2.9516,2.9501,2.9471,0,0]},{"header":{"parameterUnit":"m.s-1","parameterCategory":1,"la1":30.2992,"la2":30.254,"lo1":-89.0895,"lo2":-89.0443,"dy":0.0025,"dx":0.0025,"nx":19,"ny":19,"refTime":"2026-03-16T09:00:00:Z","depth":0,"parameterNumber":3,"parameterNumberName":"V-component_of_WINDS"},"data":[0,0,0,-9.7977,-9.7985,-9.8323,-9.8324,-9.876,-9.8764,0,0,0,0,0,0,0,0,0,0,0,-9.7882,-9.7885,-9.7977,-9.7985,-9.8323,-9.8324,-9.8759,-9.8764,0,0,0,0,0,0,0,0,0,0,0,-9.788,-9.7884,-9.7888,-9.7987,-9.8323,-9.8325,-9.8758,-9.8501,0,0,0,0,0,0,0,0,0,0,-9.8172,-9.8089,-9.7883,-9.7888,-9.7989,-9.8322,-9.8325,-9.8489,-9.8518,-9.8609,0,-9.8694,0,-9.8736,-9.8794,-9.8795,0,0,0,-9.7981,-9.8065,-9.8153,-9.7888,-9.7992,-9.8322,-9.8169,-9.8505,-9.8537,-9.8647,-9.87,-9.8716,-9.8744,-9.8797,-9.8799,-9.935,-9.9352,0,0,-9.7962,-9.7944,-9.8131,-9.8174,-9.8125,-9.8159,-9.818,-9.8524,-9.858,-9.8702,-9.8726,-9.8751,-9.8799,-9.8803,-9.9347,-9.935,0,0,0,-9.7912,-9.7931,-9.801,-9.8156,-9.8217,-9.8169,-9.8193,-9.8565,-9.8592,-9.8731,-9.8756,-9.8802,-9.8807,-9.9344,-9.9348,-9.947,0,0,0,-9.79,-9.7901,-9.8002,-9.7994,-9.8211,-9.8396,-9.8226,-9.8568,-9.8608,-9.8754,-9.8802,-9.8812,-9.9341,-9.9346,-9.946,-9.953,0,0,0,-9.7858,-9.7896,-9.7947,-9.7992,-9.8138,-9.839,-9.8438,-9.8577,-9.8624,-9.8796,-9.8813,-9.9339,-9.9345,-9.9452,-9.9516,-9.9672,0,0,0,-9.7806,-9.8047,-9.7949,-9.8228,-9.8135,-9.8464,-9.8436,-9.8681,-9.8843,-9.8804,-9.9342,-9.9348,-9.9449,-9.9507,-9.9662,-9.9801,-9.9857,0,0,-9.81,-9.8082,-9.8247,-9.8169,-9.8512,-9.8414,-9.8774,-9.8937,-9.8968,-9.922,-9.9234,-9.9464,-9.9515,-9.967,-10.0174,-10.0218,0,0,0,-9.8334,-9.8453,-9.8548,-9.8704,-9.8837,-9.8958,-9.9069,-9.9131,-9.9346,-9.9095,-9.9562,-9.9593,-9.9685,-9.9752,-9.9789,-9.987,-9.9378,-9.9377,-9.9377,-9.8722,-9.8753,-9.903,-9.9102,-9.9253,-9.9368,-9.9494,-9.9595,-9.9578,-9.9688,-9.9763,-10.0066,-10.0144,-10.0172,-10.0256,-9.9838,-9.9839,-9.9839,-9.9839,-9.9156,-9.933,-9.9307,-9.9567,-9.9598,-9.9816,-9.9936,-9.9918,-10.0125,-10.0011,-10.0093,-9.9967,-10.022,-10.0295,-9.9849,-9.9847,-9.9846,-9.9845,-9.9844,-9.9414,-9.9503,-9.9576,-9.9807,-9.9981,-10.0045,-10.0246,-10.0266,-10.0285,-10.0366,-10.0449,-10.0447,-10.0449,-10.0404,-10.0406,-10.0407,-10.0408,-10.0408,-10.0409,-9.9653,-9.9732,-9.9901,-10.0066,-10.017,-10.031,-10.043,-10.0532,-10.065,-10.0648,-10.0649,-10.0623,-10.0239,-10.0143,-10.0425,-10.0422,-10.042,-10.0419,-10.0418,-10.0083,-9.999,-10.0251,-10.0356,-10.0553,-10.0726,-10.0749,-10.0957,-10.1044,-10.1143,-10.1101,-10.0813,-10.0795,-10.0765,-10.0686,-10.1092,-10.1092,-10.1092,-10.1092,-10.0302,-10.0295,-10.0569,-10.0736,-10.0902,-10.0951,-10.1245,-10.1341,-10.1424,-10.148,-10.1424,-10.132,-10.1289,-10.129,-10.1248,-10.1175,-10.1696,-10.1697,-10.1697,-10.0569,-10.058,-10.0827,-10.0912,-10.1068,-10.1201,-10.1479,-10.1671,-10.1745,-10.1722,-10.1525,-10.15,-10.1332,-10.1276,-10.1247,-10.1183,-10.1048,0,0]}]]